Location: ČR
(50.0000°N, 15.0000°E)
Time: 07:16:59
(UTC+02:00)

A-11 Canister half - Pass Details

Date: 21 March 2026
Orbit: 1514 x 1685 km, 47.2° (Epoch: 18 April)

Event Time Altitude Azimuth Distance (km) Brightness Sun altitude
Rises 17:51:10 0° 286° (WNW) 4,909 13.4 2.9°
Reaches altitude 10° 17:54:25 10° 282° (WNW) 3,933 13.1 2.4°
Maximum altitude 18:04:02 51° 210° (SSW) 2,034 10.0 0.8°
Drops below altitude 10° 18:13:40 10° 139° (SE) 3,929 10.8 -0.7°
Sets 18:16:54 0° 134° (SE) 4,903 11.2 -1.2°
